Burley, ID

7:06 AM MDT on June 25, 2017 (GMT -0600)
Burley Municipal

Weather History for KBYI - March, 2014

Change the Weather History Date:

Thursday, March 13, 2014

  Actual Average Record
Temperature  
Mean Temperature 40 °F 39 °F  
Max Temperature 57 °F 50 °F 72 °F (1992)
Min Temperature 23 °F 28 °F 12 °F (1962)
Degree Days  
Heating Degree Days 25 26  
Month to date heating degree days 365  
Since 1 July heating degree days 5387  
Cooling Degree Days 0 0  
Month to date cooling degree days 0  
Year to date cooling degree days 0  
Moisture  
Dew Point 25 °F    
Average Humidity 62    
Maximum Humidity 96    
Minimum Humidity 25    
Precipitation  
Precipitation 0.00 in 0.04 in 0.68 in (1983)
Month to date precipitation 0.43  
Year to date precipitation 2.11  
Sea Level Pressure  
Sea Level Pressure 30.08 in    
Wind  
Wind Speed 4 mph (WSW)    
Max Wind Speed 15 mph    
Max Gust Speed 25 mph    
Visibility 10 miles    
Events      
T = Trace of Precipitation, MM = Missing Value Source: NWS Daily Summary

Daily Weather History Graph

Daily Weather History Graph

Search for Another Location

Airport or City:

Trip Planner

Search our weather history database for the weather conditions in past years. The results will help you decide how hot, cold, wet, or windy it might be!

Date:

Astronomy

Mar. 13, 2014 Rise Set
Actual Time 7:50 AM MDT 7:39 PM MDT
Civil Twilight 7:22 AM MDT 8:07 PM MDT
Nautical Twilight 6:49 AM MDT 8:40 PM MDT
Astronomical Twilight 6:16 AM MDT 9:13 PM MDT
Moon 5:06 PM MDT (3/13) 6:02 AM MDT (3/13)
Length of Visible Light 12h 45m
Length of Day
11h 48m
Waxing Gibbous, 92% of the Moon is Illuminated
Mar 13
Waxing Gibbous
Mar 16
Full
Mar 23
Last Quarter
Mar 30
New
Apr 7
First Quarter

Hourly Weather History & Observations

Time (MDT) Temp. Windchill Dew Point Humidity Pressure Visibility Wind Dir Wind Speed Gust Speed Precip Events Conditions
12:53 AM 30.0 °F - 25.0 °F 82% 30.20 in 10.0 mi Calm Calm - N/A   Clear
1:53 AM 30.0 °F - 25.0 °F 82% 30.19 in 10.0 mi Calm Calm - N/A   Clear
2:53 AM 28.0 °F - 24.1 °F 85% 30.18 in 10.0 mi Calm Calm - N/A   Clear
3:53 AM 27.0 °F - 25.0 °F 92% 30.16 in 10.0 mi Calm Calm - N/A   Clear
4:53 AM 28.0 °F - 24.1 °F 85% 30.13 in 10.0 mi Calm Calm - N/A   Clear
5:53 AM 27.0 °F 23.0 °F 26.1 °F 96% 30.12 in 10.0 mi SE 3.5 mph - N/A   Clear
6:53 AM 25.0 °F - 23.0 °F 92% 30.13 in 10.0 mi Calm Calm - N/A   Clear
7:53 AM 23.0 °F - 21.9 °F 96% 30.14 in 10.0 mi Calm Calm - N/A   Clear
8:53 AM 30.9 °F - 26.1 °F 82% 30.13 in 10.0 mi Calm Calm - N/A   Clear
9:53 AM 34.0 °F 31.0 °F 28.0 °F 79% 30.14 in 10.0 mi SSE 3.5 mph - N/A   Clear
10:53 AM 41.0 °F - 30.0 °F 65% 30.12 in 10.0 mi Calm Calm - N/A   Clear
11:53 AM 48.0 °F - 28.0 °F 46% 30.09 in 10.0 mi West 5.8 mph - N/A   Clear
12:53 PM 51.1 °F - 27.0 °F 39% 30.06 in 10.0 mi West 13.8 mph 19.6 mph N/A   Clear
1:53 PM 53.1 °F - 27.0 °F 37% 30.04 in 10.0 mi West 11.5 mph - N/A   Clear
2:53 PM 55.0 °F - 23.0 °F 29% 30.01 in 10.0 mi West 12.7 mph 25.3 mph N/A   Clear
3:53 PM 55.9 °F - 23.0 °F 28% 30.00 in 10.0 mi West 11.5 mph 20.7 mph N/A   Clear
4:53 PM 57.0 °F - 21.0 °F 25% 29.99 in 10.0 mi West 15.0 mph 21.9 mph N/A   Clear
5:53 PM 55.9 °F - 21.9 °F 27% 29.99 in 10.0 mi West 12.7 mph 19.6 mph N/A   Clear
6:53 PM 53.1 °F - 23.0 °F 31% 30.00 in 10.0 mi West 8.1 mph - N/A   Clear
7:53 PM 48.0 °F - 25.0 °F 41% 30.02 in 10.0 mi West 8.1 mph - N/A   Clear
8:53 PM 41.0 °F 35.8 °F 27.0 °F 57% 30.03 in 10.0 mi SW 8.1 mph - N/A   Clear
9:53 PM 39.0 °F 34.0 °F 27.0 °F 62% 30.04 in 10.0 mi SSW 6.9 mph - N/A   Clear
10:53 PM 37.0 °F 30.4 °F 25.0 °F 62% 30.04 in 10.0 mi SSW 9.2 mph - N/A   Clear
11:53 PM 34.0 °F 27.2 °F 24.1 °F 67% 30.03 in 10.0 mi SSW 8.1 mph - N/A   Clear